Vail, USA 16 day weather forecast

Slopes altitude range 2475 m - 3525m

Number of lifts: 25 Pistes: 193km

In some cases the lift and piste totals shown are for the ski domain (e.g. Three Valleys) rather than individual resort (e.g. Courchevel)

Overview

The 16 day weather forecast is fully updated 4 times every day.

    • Sat 20 APR 2019
    • Sat 20
    • -1C 0C
    • Sun 21 APR 2019
    • Sun 21
    • -3C -2C
    • Mon 22 APR 2019
    • Mon 22
    • -5C -2C
    • Tue 23 APR 2019
    • Tue 23
    • -5C -2C
    • Wed 24 APR 2019
    • Wed 24
    • -4C -3C
    • Thu 25 APR 2019
    • Thu 25
    • -1C 1C
    • Fri 26 APR 2019
    • Fri 26
    • 0C 2C
    • Sat 27 APR 2019
    • Sat 27
    • 1C 3C
    • Sun 28 APR 2019
    • Sun 28
    • 3C 5C
    • Mon 29 APR 2019
    • Mon 29
    • 4C 6C
    • Tue 30 APR 2019
    • Tue 30
    • 3C 14C
    • Wed 01 MAY 2019
    • Wed 01
    • 6C 14C
    • Thu 02 MAY 2019
    • Thu 02
    • 4C 10C
    • Fri 03 MAY 2019
    • Fri 03
    • 3C 6C
    • Sat 04 MAY 2019
    • Sat 04
    • 2C 4C
    • Sun 05 MAY 2019
    • Sun 05
    • 1C 6C

Date:

Time Type 0°C level Temp Chill Snow Cloud Speed Gust Dir Press
3:00 4045m 1°C 1_4 0cm 0% 4mph 4mph 1017mB
6:00 3132m 0°C 0_6 0cm 0% 6mph 7mph 1018mB
9:00 3036m -1°C -1_6 0cm 9% 6mph 7mph 1017mB
12:00 2993m 0°C 0_6 0cm 8% 6mph 7mph 1017mB
15:00 3963m 6°C 6_4 0cm 30% 4mph 6mph 1013mB
18:00 4110m 11°C 11_8 0cm 64% 8mph 15mph 1009mB
21:00 4161m 11°C 11_11 0cm 100% 11mph 15mph 1006mB
0:00 3756m 5°C 5_3 1cm 100% 3mph 5mph 1007mB
3:00 3422m 1°C 1_4 3cm 100% 4mph 5mph 1010mB
6:00 2934m -2°C -2_4 3cm 99% 4mph 5mph 1010mB
9:00 2754m -3°C -3_4 0cm 77% 4mph 5mph 1010mB
12:00 2710m -2°C -2_5 0cm 54% 5mph 6mph 1010mB
15:00 3435m 4°C 4_2 0cm 97% 2mph 3mph 1009mB
18:00 3499m 5°C 5_5 2cm 98% 5mph 6mph 1009mB
21:00 3410m 3°C 3_4 6cm 100% 4mph 6mph 1008mB
0:00 3494m 3°C 3_3 10cm 100% 3mph 7mph 1008mB
3:00 2984m -1°C -1_2 1cm 100% 2mph 2mph 1012mB
6:00 2966m -1°C -1_4 1cm 100% 4mph 4mph 1015mB
9:00 2591m -4°C -4_5 0cm 65% 5mph 6mph 1015mB
12:00 2387m -2°C -2_6 0cm 36% 6mph 7mph 1016mB
15:00 3269m 2°C 2_3 0cm 5% 3mph 4mph 1017mB
18:00 3527m 6°C 6_4 0cm 8% 4mph 5mph 1016mB
21:00 3590m 5°C 5_3 5cm 98% 3mph 5mph 1014mB
0:00 3398m 2°C 2_2 10cm 99% 2mph 4mph 1016mB
3:00 3203m 0°C 0_2 5cm 100% 2mph 3mph 1018mB
6:00 2810m -2°C -2_2 6cm 98% 2mph 2mph 1020mB
9:00 2579m -4°C -4_2 0cm 99% 2mph 3mph 1019mB
12:00 2539m -2°C -2_2 0cm 99% 2mph 2mph 1020mB
15:00 3128m 0°C 0_4 0cm 99% 4mph 5mph 1020mB
18:00 3357m 3°C 3_5 1cm 98% 5mph 6mph 1018mB
21:00 3544m 3°C 3_6 1cm 98% 6mph 8mph 1016mB
0:00 3611m 3°C 3_7 2cm 63% 7mph 10mph 1016mB
3:00 2953m -1°C -1_3 1cm 19% 3mph 3mph 1019mB
6:00 2692m -3°C -3_2 1cm 19% 2mph 2mph 1021mB
9:00 2569m -4°C -4_3 0cm 0% 3mph 3mph 1021mB
12:00 2528m -3°C -3_3 0cm 0% 3mph 4mph 1022mB
15:00 3296m 3°C 3_2 0cm 9% 2mph 2mph 1020mB
18:00 3613m 7°C 7_5 0cm 9% 5mph 5mph 1018mB
21:00 3857m 6°C 6_6 0cm 4% 6mph 8mph 1016mB
0:00 3833m 6°C 6_5 0cm 49% 5mph 9mph 1015mB
3:00 3755m 2°C 2_1 0cm 99% 1mph 2mph 1019mB
6:00 3440m 0°C 0_4 2cm 61% 4mph 5mph 1020mB
9:00 3571m -1°C -1_3 1cm 64% 3mph 4mph 1020mB
12:00 3364m 1°C 1_2 1cm 80% 2mph 3mph 1022mB
15:00 3563m 5°C 5_1 0cm 45% 1mph 2mph 1021mB
18:00 3855m 10°C 10_4 0cm 24% 4mph 6mph 1020mB
21:00 4103m 9°C 9_6 0cm 53% 6mph 9mph 1017mB
0:00 4149m 9°C 9_5 0cm 42% 5mph 9mph 1017mB
3:00 4104m 4°C 4_1 0cm 35% 1mph 1mph 1020mB
6:00 4041m 2°C 2_5 0cm 18% 5mph 6mph 1021mB
9:00 3777m 1°C 1_5 0cm 0% 5mph 6mph 1021mB
12:00 3742m 2°C 2_5 0cm 21% 5mph 6mph 1021mB
15:00 3969m 8°C 8_4 0cm 96% 4mph 5mph 1019mB
18:00 4158m 12°C 12_10 0cm 98% 10mph 15mph 1017mB
21:00 4329m 12°C 12_14 0cm 96% 14mph 17mph 1014mB
0:00 4271m 11°C 11_13 0cm 97% 13mph 16mph 1014mB
3:00 4212m 5°C 5_5 0cm 100% 5mph 6mph 1016mB
6:00 4141m 3°C 3_5 0cm 99% 5mph 7mph 1017mB
9:00 4110m 2°C 2_6 0cm 100% 6mph 7mph 1016mB
12:00 3848m 3°C 3_6 0cm 97% 6mph 7mph 1017mB
15:00 3786m 11°C 11_12 0cm 58% 12mph 25mph 1014mB
18:00 3967m 15°C 15_19 0cm 32% 19mph 33mph 1012mB
21:00 4055m 15°C 15_20 0cm 52% 20mph 32mph 1011mB
0:00 4028m 14°C 14_17 0cm 42% 17mph 28mph 1011mB
3:00 3950m 7°C 7_3 0cm 55% 3mph 4mph 1016mB
6:00 3860m 5°C 5_4 0cm 33% 4mph 5mph 1018mB
9:00 3825m 4°C 4_4 0cm 42% 4mph 6mph 1019mB
12:00 3839m 5°C 5_3 0cm 22% 3mph 4mph 1020mB
15:00 3889m 12°C 12_4 0cm 0% 4mph 9mph 1017mB
18:00 4040m 16°C 16_10 0cm 0% 10mph 16mph 1014mB
21:00 4249m 16°C 16_13 0cm 1% 13mph 20mph 1011mB
0:00 4262m 16°C 16_13 0cm 11% 13mph 20mph 1010mB
3:00 4127m 9°C 9_4 0cm 7% 4mph 6mph 1014mB
6:00 4144m 6°C 6_4 0cm 13% 4mph 5mph 1015mB
9:00 4044m 5°C 5_4 0cm 89% 4mph 6mph 1015mB
12:00 3977m 6°C 6_3 0cm 89% 3mph 4mph 1017mB
15:00 3925m 12°C 12_3 0cm 99% 3mph 7mph 1017mB
18:00 4075m 17°C 17_5 0cm 99% 5mph 9mph 1015mB
21:00 4296m 17°C 17_10 0cm 86% 10mph 14mph 1013mB
0:00 4331m 17°C 17_4 0cm 92% 4mph 10mph 1013mB
Afternoon 0.0208333mm 0.25 4131m 14°C 14_7 0cm 61% 7mph 12mph 1022mB
Morning 0.046875mm 0.375 4384m 3°C 3_2 0cm 90% 2mph 6mph 1016mB
Afternoon 0.442708mm 1.375 4077m 14°C 14_3 0cm 98% 3mph 4mph 1017mB
Morning 0.635417mm 4 4047m 6°C 6_4 0cm 99% 4mph 6mph 1011mB
Afternoon 0.234375mm 0.25 3960m 10°C 10_3 0cm 96% 3mph 4mph 1012mB
Morning 0.828125mm 0.9375 3785m 4°C 4_6 0cm 98% 6mph 10mph 1009mB
Afternoon 3.35417mm 0.8125 3636m 6°C 6_5 0cm 100% 5mph 12mph 1011mB
Morning 2.32812mm 0.3125 3493m 3°C 3_5 0cm 100% 5mph 8mph 1012mB
Afternoon 0.21875mm 0 3326m 4°C 4_4 0cm 91% 4mph 6mph 1012mB
Morning 0.364583mm 0.25 3627m 2°C 2_5 0cm 93% 5mph 8mph 1009mB
Afternoon 1.26042mm 0 3424m 6°C 6_4 0cm 99% 4mph 4mph 1011mB
Morning 0.65625mm 3.5625 3652m 1°C 1_5 0cm 94% 5mph 9mph 1008mB

16 day outlook at a glance

Forecast issued: 20/04/2019 06:22:58

Chat

Your comments and questions. In a resort? Let us know what it's like!


Characters left 250

For terms and conditions see Readers Comments on the Cookie and privacy policy page.